Wind_Speed
39 39 39 39 38 38 38 37 35 34 33 31 30 29 29 29 29 29 30 28 26 24 24 23 22 22 22 22 23 23 24 25 24 24 23 23 23 22 20 19 19 19 19
40 40 40 40 40 41 40 40 39 37 36 35 34 33 33 33 33 32 32 31 29 27 25 25 24 23 22 22 23 24 24 26 26 26 26 25 25 25 23 22 21 20 21
42 41 41 41 41 42 42 42 41 40 39 37 36 36 35 35 35 33 33 32 31 30 28 27 25 24 23 23 23 24 25 26 27 28 28 27 27 27 26 25 24 22 22
43 41 41 41 41 41 42 42 41 40 39 38 38 37 36 36 36 36 35 32 32 31 30 29 28 27 25 24 23 23 25 27 28 28 29 29 29 29 28 27 26 25 24
40 39 38 38 38 38 39 39 40 39 39 38 37 37 36 35 35 35 33 32 31 31 32 31 29 29 28 26 25 24 26 28 29 30 31 31 31 30 30 29 28 27 26
35 36 35 36 35 34 35 36 37 37 37 36 36 35 34 33 33 33 33 33 33 32 32 31 31 30 28 26 25 25 25 27 30 31 32 32 32 32 31 30 30 28 28
32 32 34 34 33 32 32 32 33 34 34 34 34 33 33 32 32 33 33 33 34 34 34 33 32 30 27 26 26 27 27 28 29 30 32 34 33 32 31 31 30 29 28
27 26 26 28 29 30 30 31 30 32 33 33 33 33 33 34 34 34 34 34 34 35 34 34 33 32 31 29 28 28 27 28 30 30 31 33 32 31 31 30 29 28 27
17 21 22 23 23 24 27 28 29 30 31 31 31 32 33 33 34 34 34 35 35 35 34 34 33 31 30 29 28 29 29 29 29 31 30 29 30 30 30 28 27 27 27
13 13 13 16 17 19 22 23 26 27 28 28 28 29 30 31 32 32 32 32 31 32 32 31 30 30 29 29 29 29 29 29 28 29 27 27 28 29 27 26 26 26 26
9 9 9 9 10 12 15 17 19 21 21 22 22 24 25 26 26 26 26 26 26 26 25 25 25 25 25 25 26 28 28 27 27 27 27 28 27 26 25 26 25 24 24
10 8 6 6 4 5 6 8 11 13 14 15 16 17 17 17 18 17 17 16 17 17 16 17 18 20 19 19 21 22 22 23 22 23 23 24 24 24 24 24 23 23 23
13 11 8 7 4 2 2 1 2 4 6 6 8 8 8 9 9 9 9 10 9 9 9 10 11 12 13 14 15 15 16 17 18 19 20 21 21 22 22 23 23 23 23
16 14 13 12 11 10 8 9 8 5 4 3 3 2 1 1 1 2 3 3 3 4 5 6 7 8 9 11 12 13 14 15 16 18 19 20 20 21 22 22 23 23 23
17 17 18 17 16 15 14 14 12 12 11 10 9 8 7 6 5 4 4 4 4 5 6 7 8 9 11 13 14 15 16 17 18 19 19 20 20 21 22 22 22 22 22
21 20 20 20 19 19 18 16 15 13 12 11 10 9 8 8 7 6 6 6 6 7 9 10 11 12 14 15 16 17 19 20 20 21 21 22 22 23 23 22 22 22 22
20 20 19 19 19 19 18 17 16 15 14 13 12 11 10 9 9 8 8 8 8 9 10 11 12 14 15 17 18 20 20 21 22 22 22 22 22 23 23 22 22 22 21
20 20 19 19 19 19 18 18 17 17 16 15 14 13 12 11 11 11 10 10 10 10 11 12 13 14 16 18 19 20 21 22 22 22 23 22 22 23 23 22 22 21 21
19 20 20 19 19 19 19 19 18 18 17 17 17 16 15 15 14 14 13 12 11 11 12 12 13 14 15 16 18 20 20 21 21 22 22 23 23 22 22 21 20 20 19
19 19 19 19 19 19 19 20 19 19 20 19 19 18 17 17 16 16 16 15 14 13 13 12 13 13 14 15 16 17 18 18 18 18 19 19 20 19 19 19 19 18 17
19 19 19 19 19 20 20 20 20 20 20 20 20 20 19 19 18 18 18 18 17 16 15 14 13 13 13 13 13 13 13 13 13 14 14 14 15 15 16 16 16 16 15
19 19 19 19 19 19 20 20 21 21 21 21 21 21 21 21 20 20 20 20 19 19 18 17 15 14 14 13 12 10 9 8 7 8 9 10 11 12 13 14 13 13 12
18 18 19 19 19 19 19 19 20 20 21 21 21 22 22 22 22 22 22 22 22 21 21 20 18 17 16 15 13 10 9 7 5 3 3 4 6 8 9 10 10 10 10
16 17 17 17 17 17 17 18 18 19 19 19 20 21 21 22 22 23 23 23 23 23 23 22 21 20 19 18 16 14 11 10 8 6 4 2 1 3 5 6 6 7 7
14 15 15 16 16 15 15 16 16 17 18 18 19 19 20 21 22 22 23 23 23 24 24 24 23 22 21 20 19 18 16 14 13 11 9 7 5 3 3 3 3 3 2
12 12 13 13 14 14 14 14 15 16 16 17 17 18 19 20 21 21 22 23 23 24 24 24 24 23 23 22 21 21 20 18 16 15 14 12 11 9 7 7 5 4 4
Wind_Direction
266 266 266 264 263 262 262 263 264 264 265 264 263 263 264 266 267 269 272 270 266 267 268 268 269 268 267 265 266 266 264 261 261 262 261 262 264 265 265 269 274 278 281
267 266 264 262 261 261 261 261 261 261 263 263 265 265 265 266 266 269 270 270 268 264 263 264 265 265 266 268 267 267 266 261 260 259 259 259 261 264 266 266 267 272 277
267 264 261 259 258 259 259 259 260 260 260 261 262 263 263 265 267 267 266 268 267 265 261 258 263 263 263 267 269 267 266 264 262 260 257 256 257 260 263 266 266 266 268
266 261 260 258 256 256 256 257 258 259 260 259 260 261 262 263 265 266 266 266 264 266 263 258 259 262 262 265 269 270 266 264 263 260 256 254 255 258 261 264 266 267 267
265 261 259 256 254 252 253 255 256 257 259 259 258 259 259 261 263 265 266 269 269 270 267 264 263 264 264 264 268 270 269 265 262 258 255 252 251 254 257 260 263 265 268
266 262 259 255 253 252 252 252 254 254 256 257 258 258 258 258 260 264 270 271 272 273 272 275 271 268 266 267 269 269 270 266 263 261 253 250 250 251 254 257 260 262 265
271 268 262 260 256 253 252 252 253 252 253 254 255 256 257 258 261 264 268 271 272 275 274 276 274 272 269 267 268 268 268 265 263 260 254 249 248 249 251 253 256 259 262
274 272 268 264 260 255 255 254 255 253 252 253 255 256 258 260 262 266 269 271 271 271 271 270 270 270 270 267 266 266 265 263 260 258 255 250 247 247 248 249 252 255 258
290 279 273 267 265 262 258 256 256 255 253 254 256 257 260 262 265 268 269 270 270 270 270 267 266 266 266 265 264 264 262 259 257 257 253 248 245 245 245 247 251 254 256
312 301 288 273 268 267 261 258 258 257 255 256 259 261 263 265 267 270 271 270 270 272 270 267 266 265 264 262 262 262 260 259 256 250 245 243 244 244 245 248 252 255 256
335 319 310 293 279 268 261 260 259 258 257 260 263 265 266 268 270 270 271 270 270 270 268 264 263 263 261 261 259 258 256 253 250 247 245 244 244 243 247 251 253 255 257
4 354 345 333 309 287 273 261 258 255 257 261 266 268 270 270 269 268 270 270 269 266 265 261 258 260 255 254 253 250 249 249 249 249 248 248 248 247 249 251 254 256 256
31 33 33 26 26 21 18 339 265 255 254 262 269 271 270 270 269 269 269 268 266 263 257 255 253 251 249 247 248 249 247 248 248 248 249 249 250 251 252 254 255 256 258
45 47 54 64 66 70 79 82 84 83 90 84 79 82 56 9 329 306 302 293 267 259 256 261 258 256 257 258 257 256 258 255 253 253 253 252 252 253 255 256 257 258 260
57 61 64 70 71 73 77 80 80 77 74 72 68 60 52 43 33 21 5 346 321 303 293 282 274 268 267 266 264 264 263 264 264 262 260 258 257 257 258 258 259 260 261
61 63 65 67 69 72 73 72 71 67 63 59 53 48 42 32 24 9 353 336 318 303 291 285 281 278 277 273 271 269 268 267 267 266 264 260 258 258 259 260 260 261 262
61 62 63 66 68 69 69 67 66 63 60 55 49 42 33 23 14 4 351 338 325 314 303 296 290 287 283 278 276 275 274 271 268 266 265 262 259 258 259 259 260 262 264
62 64 66 67 66 65 64 62 60 57 54 49 43 38 33 28 20 10 360 349 337 328 318 309 302 296 291 284 280 276 276 274 271 268 267 264 261 259 260 259 259 261 262
63 64 66 65 64 63 61 59 57 54 51 48 45 42 40 35 28 20 13 4 354 342 332 323 317 310 304 297 289 283 281 278 274 270 267 264 262 259 257 257 258 259 261
65 65 64 63 62 61 59 57 56 54 52 50 48 45 41 37 32 27 23 18 11 2 352 342 335 328 319 311 303 296 289 283 276 272 267 264 261 257 254 254 255 255 256
65 64 63 62 61 60 59 58 57 55 52 50 48 45 42 39 36 33 29 26 22 16 8 359 352 346 340 330 321 313 304 292 281 274 268 263 258 253 251 250 250 251 252
64 63 63 62 61 60 58 57 55 54 53 50 47 45 43 42 40 37 33 29 26 22 18 14 9 3 357 352 345 338 329 317 297 281 269 259 254 247 244 243 245 249 252
62 62 62 60 59 58 56 55 54 53 52 49 47 45 44 43 41 38 35 33 30 28 26 24 21 20 18 16 13 10 8 7 356 328 285 259 246 241 238 238 241 244 249
61 60 59 57 57 56 54 53 51 49 48 46 44 42 41 40 38 37 35 34 32 31 30 30 30 30 30 31 32 32 35 38 42 45 48 58 211 220 219 222 229 234 241
58 57 55 53 52 51 50 49 47 46 45 42 40 39 38 36 35 34 34 34 33 32 32 33 35 36 37 39 41 44 47 51 54 58 62 66 78 103 130 149 161 175 204
53 51 49 48 48 47 46 45 43 41 40 37 35 33 33 31 31 31 31 32 33 33 33 34 36 39 41 44 46 48 51 54 57 59 62 67 72 81 92 98 102 104 103
Height
5868 5869 5869 5869 5869 5870 5870 5871 5872 5874 5875 5876 5877 5878 5879 5879 5879 5878 5878 5879 5879 5879 5878 5878 5878 5878 5877 5877 5877 5878 5878 5878 5879 5880 5880 5880 5881 5882 5883 5883 5882 5882 5882
5858 5858 5858 5858 5858 5859 5860 5861 5862 5864 5866 5868 5869 5869 5870 5870 5870 5871 5870 5870 5871 5871 5871 5871 5871 5871 5871 5871 5871 5871 5871 5872 5873 5874 5875 5875 5876 5876 5877 5877 5878 5878 5877
5846 5846 5847 5847 5848 5848 5849 5851 5852 5854 5856 5858 5859 5860 5861 5862 5861 5862 5862 5862 5861 5862 5863 5863 5863 5864 5864 5865 5865 5865 5865 5865 5866 5867 5868 5869 5869 5870 5871 5871 5872 5873 5873
5833 5834 5835 5836 5837 5838 5839 5841 5842 5844 5846 5848 5850 5851 5853 5853 5854 5853 5853 5853 5852 5852 5853 5854 5855 5856 5856 5857 5857 5858 5858 5858 5859 5860 5861 5862 5863 5864 5865 5865 5865 5866 5867
5821 5822 5823 5824 5826 5827 5829 5831 5833 5834 5836 5838 5840 5842 5844 5845 5845 5844 5844 5843 5843 5843 5844 5845 5846 5847 5848 5848 5849 5850 5850 5850 5851 5852 5853 5854 5855 5856 5858 5858 5859 5860 5860
5811 5811 5812 5814 5816 5818 5819 5821 5823 5825 5827 5829 5831 5833 5835 5836 5836 5837 5837 5836 5836 5836 5835 5835 5837 5838 5839 5840 5840 5841 5842 5842 5843 5843 5845 5846 5847 5849 5851 5852 5852 5853 5854
5801 5801 5802 5804 5806 5809 5811 5813 5814 5816 5818 5820 5822 5824 5826 5828 5829 5829 5830 5829 5829 5829 5828 5828 5828 5829 5830 5831 5832 5833 5833 5833 5834 5835 5836 5838 5839 5841 5843 5845 5845 5846 5847
5795 5794 5794 5796 5798 5801 5803 5805 5806 5808 5810 5812 5814 5816 5818 5820 5821 5821 5822 5821 5821 5821 5820 5821 5821 5822 5823 5823 5824 5824 5824 5825 5826 5826 5828 5829 5831 5833 5835 5837 5838 5839 5840
5790 5789 5789 5790 5791 5793 5795 5797 5799 5801 5802 5805 5807 5808 5810 5811 5812 5813 5813 5813 5813 5812 5811 5812 5813 5813 5814 5814 5815 5816 5816 5817 5817 5818 5820 5821 5823 5825 5826 5828 5830 5832 5833
5787 5786 5785 5785 5785 5787 5788 5790 5792 5794 5796 5798 5800 5801 5802 5803 5804 5804 5804 5804 5804 5803 5803 5803 5804 5805 5805 5806 5807 5807 5807 5808 5809 5810 5811 5813 5815 5817 5819 5821 5823 5824 5825
5786 5784 5783 5782 5782 5783 5784 5786 5787 5789 5791 5793 5795 5796 5796 5797 5797 5798 5797 5797 5797 5796 5796 5796 5797 5797 5798 5798 5799 5800 5800 5801 5801 5803 5804 5806 5808 5810 5811 5813 5815 5817 5818
5786 5785 5783 5782 5781 5781 5782 5783 5784 5786 5788 5790 5791 5791 5792 5792 5792 5792 5792 5791 5791 5790 5790 5790 5791 5791 5791 5792 5793 5793 5793 5794 5795 5797 5798 5800 5801 5803 5804 5806 5808 5809 5811
5788 5786 5784 5783 5782 5782 5782 5782 5784 5785 5786 5787 5788 5788 5789 5789 5789 5789 5788 5788 5787 5787 5787 5787 5787 5787 5787 5788 5788 5788 5789 5789 5790 5791 5793 5794 5795 5796 5798 5800 5801 5802 5803
5792 5790 5788 5787 5785 5784 5784 5784 5786 5786 5787 5787 5788 5787 5788 5787 5787 5787 5786 5785 5785 5785 5785 5784 5784 5784 5784 5784 5784 5784 5785 5785 5786 5787 5787 5788 5789 5790 5792 5793 5794 5796 5797
5797 5795 5793 5791 5790 5789 5788 5788 5789 5789 5789 5789 5789 5789 5788 5788 5787 5786 5785 5785 5784 5783 5783 5782 5782 5782 5781 5781 5781 5781 5781 5781 5781 5782 5782 5783 5784 5785 5786 5787 5788 5789 5790
5803 5801 5798 5797 5796 5795 5794 5793 5793 5792 5792 5791 5791 5790 5789 5788 5787 5786 5785 5784 5783 5782 5781 5780 5779 5779 5778 5777 5777 5777 5776 5776 5776 5776 5777 5777 5778 5779 5779 5780 5781 5783 5783
5808 5806 5804 5803 5801 5800 5799 5798 5797 5796 5795 5794 5793 5792 5790 5789 5787 5786 5784 5783 5781 5780 5778 5777 5776 5775 5774 5773 5772 5771 5771 5770 5770 5770 5770 5771 5771 5772 5773 5774 5775 5776 5777
5813 5811 5809 5808 5806 5805 5803 5802 5801 5799 5798 5796 5795 5793 5791 5789 5788 5786 5784 5782 5780 5778 5776 5774 5772 5771 5769 5767 5766 5765 5764 5763 5763 5763 5763 5764 5765 5765 5767 5768 5769 5770 5771
5818 5816 5815 5813 5811 5810 5808 5806 5804 5803 5801 5799 5797 5795 5793 5791 5788 5786 5783 5781 5778 5776 5773 5771 5769 5767 5764 5762 5760 5759 5757 5756 5756 5756 5756 5757 5758 5759 5760 5762 5763 5765 5766
5823 5821 5819 5818 5816 5814 5812 5810 5808 5806 5804 5802 5800 5797 5795 5792 5790 5787 5784 5781 5778 5775 5772 5769 5766 5763 5760 5758 5755 5753 5751 5750 5750 5750 5750 5750 5751 5753 5754 5756 5758 5760 5761
5828 5826 5824 5822 5821 5819 5817 5815 5813 5810 5808 5806 5803 5800 5797 5795 5792 5789 5785 5782 5779 5775 5771 5768 5764 5761 5758 5754 5751 5749 5747 5745 5744 5744 5744 5745 5746 5748 5749 5751 5753 5755 5756
5833 5831 5829 5827 5825 5823 5821 5819 5817 5815 5812 5810 5807 5804 5800 5797 5794 5791 5787 5784 5780 5776 5772 5768 5764 5760 5756 5752 5749 5746 5744 5742 5741 5741 5741 5741 5742 5744 5746 5748 5749 5751 5753
5837 5835 5834 5832 5830 5828 5826 5824 5821 5819 5816 5814 5811 5808 5804 5801 5797 5794 5790 5786 5782 5778 5773 5769 5764 5760 5756 5752 5749 5746 5743 5741 5740 5739 5739 5739 5740 5741 5743 5745 5746 5748 5750
5841 5839 5838 5836 5834 5832 5830 5828 5825 5823 5820 5817 5814 5811 5808 5804 5801 5797 5793 5789 5785 5780 5776 5771 5766 5762 5758 5754 5750 5747 5744 5742 5741 5740 5739 5739 5739 5740 5741 5743 5745 5746 5748
5845 5843 5841 5839 5837 5835 5833 5831 5829 5826 5824 5821 5818 5815 5811 5808 5804 5801 5797 5792 5788 5783 5779 5774 5769 5765 5761 5757 5753 5750 5747 5745 5743 5742 5741 5740 5740 5741 5742 5743 5744 5746 5747
5848 5846 5844 5842 5840 5838 5836 5834 5832 5829 5827 5824 5821 5818 5815 5811 5808 5804 5800 5796 5792 5787 5782 5778 5773 5769 5765 5761 5758 5755 5752 5749 5748 5746 5745 5744 5743 5743 5743 5744 5745 5746 5747